Wetbulb
33.53 33.54 33.17 32.90 32.97 33.09 32.59 32.19 31.70 31.05 30.23 29.38 28.95 28.65 28.25 28.01 28.10 28.17 27.98 28.04 27.30 27.66 28.54 27.94 27.76 28.78 28.42 28.95 29.20 29.06 28.49 28.59 26.36 29.17 31.63 33.17 32.78 33.18 34.58 35.62 36.48 36.59 37.21
33.40 33.08 32.97 32.55 32.29 32.18 31.72 31.24 30.83 29.70 29.01 28.21 27.51 26.98 26.53 26.32 26.42 26.05 25.98 26.40 25.73 25.54 25.85 25.89 25.83 26.50 26.13 27.18 27.52 26.96 27.01 27.64 26.14 24.59 27.62 28.85 29.76 31.75 32.75 32.73 33.58 34.91 35.33
32.73 32.63 32.27 32.08 32.02 31.79 30.97 30.22 29.27 28.25 27.28 26.25 25.72 25.01 24.34 24.16 24.34 25.10 25.05 25.09 24.98 24.99 24.84 24.06 24.03 23.81 22.94 23.95 24.09 24.01 24.73 25.37 26.04 25.47 25.05 27.88 28.95 30.13 29.99 31.32 32.21 33.65 34.65
32.06 31.98 31.87 32.02 31.89 31.53 30.41 28.63 27.37 26.50 25.45 24.62 24.14 22.93 22.70 22.47 22.95 23.45 23.68 24.25 24.37 24.11 23.91 23.31 22.75 22.17 21.45 21.30 21.16 21.56 22.51 22.82 22.85 22.87 23.65 24.79 26.10 27.71 28.69 28.15 28.90 32.23 32.23
31.03 31.67 31.79 32.23 31.70 30.24 27.65 25.49 24.43 23.88 23.45 22.65 21.85 21.23 21.27 21.33 22.18 22.61 23.36 23.37 22.71 22.28 22.48 22.24 22.14 21.55 20.90 20.93 20.73 20.44 20.28 20.18 19.83 20.06 20.15 21.49 21.95 23.22 23.42 25.79 25.51 27.24 28.37
31.68 31.13 31.94 31.03 28.38 26.54 24.69 23.13 22.40 21.68 21.23 20.38 19.51 18.92 18.78 19.91 19.38 21.64 22.50 21.84 21.47 20.71 20.00 20.51 20.87 20.40 20.75 20.79 21.10 21.70 21.87 19.55 18.41 18.67 18.55 17.82 19.23 21.11 22.80 22.62 22.69 22.11 20.93
29.86 30.03 29.14 28.56 26.29 24.84 23.16 21.50 20.89 20.20 19.70 18.52 18.10 17.71 17.63 18.25 18.09 20.82 21.32 20.81 20.51 19.86 19.09 18.98 18.96 19.97 19.49 19.48 20.14 21.18 21.35 22.12 22.87 20.96 19.11 18.69 18.94 20.32 21.15 20.21 20.61 21.11 21.41
29.27 28.59 27.61 26.54 25.33 23.03 20.55 19.85 19.65 19.11 18.04 17.59 17.14 16.76 16.67 17.15 17.44 19.18 20.51 20.44 19.65 19.22 18.94 18.91 18.49 18.79 19.60 19.26 19.18 19.70 19.92 21.06 21.61 22.09 21.79 21.89 22.45 23.28 23.13 22.65 22.64 23.04 24.47
28.05 27.57 26.64 25.49 23.13 20.78 18.76 18.57 18.60 17.75 16.90 16.15 16.26 15.21 13.74 14.36 15.71 18.28 19.18 19.23 18.68 18.37 19.09 19.60 19.41 18.69 20.58 22.87 21.64 20.40 20.77 21.48 24.05 25.02 25.46 26.02 26.38 26.62 26.27 24.57 22.38 21.14 19.43
28.19 27.78 26.55 24.29 21.49 19.17 18.64 17.10 17.59 16.44 15.85 15.42 14.94 14.27 12.46 11.58 14.23 16.51 18.54 19.34 18.31 18.79 19.57 20.01 21.63 21.55 22.82 23.97 22.37 21.93 20.68 21.85 22.60 23.32 23.41 24.10 24.95 24.67 25.26 24.13 22.76 19.21 19.24
28.17 25.60 23.00 21.52 18.92 18.43 16.88 16.26 14.57 13.74 13.30 11.91 11.35 12.52 11.64 11.93 13.03 16.08 18.33 19.05 18.92 19.13 19.84 19.74 20.68 22.44 23.59 24.56 23.56 20.91 20.07 21.72 21.41 20.84 21.38 22.31 23.23 23.67 24.10 24.12 23.67 22.11 19.67
23.86 21.87 19.86 17.37 17.16 15.15 12.92 12.78 11.26 11.22 9.98 10.15 10.42 11.60 13.72 13.16 13.89 16.50 18.41 20.19 21.42 19.90 18.97 20.26 20.60 22.16 20.94 20.82 19.66 19.77 20.68 19.91 17.29 17.03 17.07 17.63 18.60 20.05 21.96 23.04 23.30 23.48 23.71
19.74 18.12 15.86 14.09 14.43 13.22 11.29 11.43 11.73 11.30 11.13 12.73 12.09 13.01 13.45 14.16 15.20 16.39 17.90 19.47 20.85 20.19 21.03 20.88 19.76 18.03 17.12 15.65 16.25 16.75 14.94 13.46 13.42 12.70 12.79 13.94 16.08 18.01 18.75 19.49 20.95 21.68 21.89
17.58 15.09 13.10 10.95 11.85 10.60 12.25 12.73 12.47 13.11 12.80 12.36 12.13 12.20 12.82 13.53 14.72 16.47 17.13 18.54 19.84 21.07 20.03 15.44 15.12 13.88 13.84 13.63 11.74 12.49 11.90 11.62 10.36 10.11 11.34 13.07 14.70 14.86 15.07 16.67 16.88 17.78 17.38
16.37 14.29 13.95 13.23 11.11 12.70 12.03 13.25 12.73 13.74 13.58 12.16 11.77 11.36 12.15 13.58 15.68 17.64 19.51 19.95 20.88 21.01 16.16 12.76 9.99 9.31 8.69 9.41 9.85 9.88 10.53 10.54 9.66 10.57 10.21 10.44 11.36 12.74 13.57 15.70 15.47 15.49 15.03
14.80 13.43 14.09 13.81 12.54 12.38 12.45 12.20 14.81 15.94 16.47 17.58 19.05 18.46 18.34 17.71 19.92 19.40 19.88 20.67 20.81 17.49 12.41 7.89 6.66 7.12 6.82 7.15 7.29 7.81 9.05 8.98 9.68 9.19 9.26 10.07 10.39 10.86 11.75 13.15 14.73 14.77 14.23
16.43 14.70 13.41 11.48 12.18 11.71 10.86 10.36 10.64 12.55 13.67 15.25 16.27 17.16 18.45 19.24 18.80 18.58 19.22 19.58 14.98 12.26 7.27 5.97 5.31 5.75 5.84 6.39 6.87 7.09 7.04 8.68 8.86 9.07 9.35 9.93 10.51 10.78 10.71 11.80 13.27 14.40 15.80
10.83 9.23 12.27 12.14 11.70 11.22 10.32 9.77 8.77 7.85 7.56 8.62 9.79 10.73 12.87 14.48 15.85 17.03 17.42 15.75 8.69 6.51 4.25 3.86 3.73 4.38 4.91 5.19 5.87 5.94 6.56 7.45 7.82 8.41 8.85 9.55 10.25 10.53 10.33 10.89 12.25 12.39 14.36
7.85 9.10 8.50 8.93 8.62 7.84 7.75 6.74 5.99 5.48 5.03 4.69 4.91 6.49 7.36 10.33 12.13 13.79 13.56 7.50 3.77 2.64 2.98 2.62 3.45 3.29 3.62 4.15 4.63 5.17 5.66 6.24 6.97 7.16 8.45 9.58 10.78 11.19 10.15 10.62 11.38 11.29 12.78
3.80 2.06 3.50 6.19 5.99 5.04 4.99 4.27 4.05 3.88 3.80 3.50 3.26 3.72 4.75 1.22 3.18 5.53 4.94 3.10 2.15 1.74 1.40 1.01 1.60 1.80 2.06 2.41 3.17 4.03 4.61 5.68 6.55 7.39 8.29 9.48 11.36 11.44 9.91 9.82 10.80 11.46 12.57
4.17 3.70 1.08 3.08 3.37 3.44 3.42 2.89 2.93 2.86 2.06 2.29 2.38 3.65 6.48 2.41 3.90 5.00 3.94 2.58 1.59 0.45 0.12 0.10 0.27 0.43 0.90 1.26 1.72 2.54 3.55 4.47 5.34 6.37 7.78 8.78 10.60 9.29 10.32 10.86 11.46 12.10 13.20
0.14 0.44 0.16 -0.70 0.15 0.37 0.78 1.11 0.82 0.56 0.60 0.44 1.25 2.48 7.26 6.38 6.20 3.93 2.55 1.50 0.68 -0.51 -1.08 -1.64 -1.28 -0.30 0.11 -0.11 0.37 0.95 1.31 2.10 3.97 5.75 7.02 6.72 9.92 10.35 10.19 10.36 10.76 11.68 12.38
-1.37 -1.74 -1.59 -2.22 -2.37 -3.02 -2.99 -2.02 -1.86 -1.44 -1.20 -0.85 -0.63 -0.44 0.54 0.75 0.88 0.62 0.18 -0.33 -1.84 -2.55 -2.05 -2.27 -2.31 -2.52 -0.93 -0.74 0.51 0.70 -0.19 0.83 3.04 4.07 4.22 6.40 9.43 9.74 9.67 9.77 9.82 9.87 10.83
-1.26 -1.60 -1.75 -1.47 -1.82 -2.48 -2.81 -2.66 -2.02 -3.97 -4.50 -2.48 -2.06 -1.76 -1.22 -0.56 -0.90 -1.10 -1.92 -2.66 -3.49 -3.58 -3.38 -3.88 -4.20 -4.11 -3.80 -3.54 -1.14 0.17 1.02 0.99 2.54 3.00 4.99 9.67 8.86 9.16 8.71 8.55 9.08 8.93 9.78
-2.05 -2.27 -2.50 -2.44 -2.74 -2.88 -3.32 -3.41 -3.90 -4.02 -3.71 -3.32 -2.68 -2.12 -1.52 -1.71 -1.97 -2.46 -3.30 -4.45 -6.09 -6.22 -5.42 -4.96 -4.52 -4.20 -4.54 -5.17 -5.06 -4.36 -2.99 -1.46 -0.36 4.78 10.55 9.99 8.70 7.83 8.34 8.36 7.49 8.71 8.22
-1.00 -1.89 -2.16 -2.26 -2.83 -2.92 -3.22 -3.32 -2.96 -2.30 -2.22 -1.28 -0.89 -0.80 -0.90 -1.62 -2.40 -3.60 -4.69 -6.28 -6.87 -6.51 -6.04 -5.35 -5.25 -5.97 -6.08 -4.88 -3.63 -1.78 -0.64 4.51 7.25 13.13 9.52 10.32 8.43 8.57 8.11 8.27 7.26 8.28 7.63
MSLP
1029.23 1029.63 1030.12 1030.38 1030.57 1031.08 1031.40 1031.59 1031.65 1031.91 1032.09 1032.14 1032.15 1032.11 1032.12 1032.08 1032.06 1031.83 1031.48 1031.37 1031.15 1030.97 1030.62 1030.34 1030.00 1029.68 1029.36 1028.98 1028.51 1028.01 1027.56 1027.04 1025.70 1023.86 1023.80 1023.24 1022.55 1022.05 1021.51 1020.90 1020.38 1019.68 1019.02
1029.12 1029.60 1029.89 1030.20 1030.83 1031.04 1031.41 1031.66 1031.96 1031.86 1032.12 1032.12 1032.26 1032.24 1032.24 1032.13 1032.05 1031.84 1031.56 1031.33 1031.07 1030.79 1030.53 1030.31 1030.03 1029.70 1029.44 1029.00 1028.50 1027.92 1027.41 1026.95 1026.15 1024.44 1023.49 1023.16 1022.68 1022.03 1021.28 1020.66 1019.96 1019.36 1018.72
1028.69 1029.32 1029.87 1030.05 1030.39 1030.55 1031.04 1031.48 1031.75 1032.07 1031.95 1032.22 1032.33 1032.35 1032.28 1032.32 1032.08 1031.74 1031.57 1031.34 1031.07 1030.83 1030.66 1030.50 1030.15 1029.88 1029.53 1029.14 1028.70 1028.06 1027.44 1026.72 1026.05 1024.98 1023.08 1023.05 1022.44 1021.99 1021.01 1020.26 1019.37 1018.73 1018.15
1028.55 1028.98 1029.29 1029.59 1030.09 1030.31 1030.63 1031.19 1031.50 1031.95 1031.88 1032.13 1032.30 1032.41 1032.37 1032.35 1032.04 1031.78 1031.60 1031.22 1030.96 1030.77 1030.59 1030.40 1030.13 1029.86 1029.60 1029.28 1028.80 1028.20 1027.44 1026.59 1025.96 1025.05 1023.71 1022.54 1022.07 1021.55 1020.94 1019.87 1018.63 1018.12 1017.35
1027.70 1028.27 1028.70 1029.19 1029.67 1030.33 1030.63 1031.39 1031.69 1031.86 1032.06 1032.33 1032.38 1032.40 1032.28 1032.17 1031.90 1031.74 1031.32 1030.96 1030.72 1030.43 1030.25 1030.10 1029.88 1029.82 1029.81 1029.49 1028.69 1027.96 1027.46 1026.72 1026.04 1025.12 1023.83 1022.76 1021.87 1021.36 1020.85 1020.27 1019.30 1018.44 1017.55
1026.87 1027.65 1028.33 1028.99 1029.66 1030.12 1030.71 1031.27 1031.66 1032.03 1032.26 1032.36 1032.21 1032.18 1032.13 1032.02 1032.03 1031.63 1031.24 1030.89 1030.60 1030.29 1029.97 1029.77 1029.60 1029.34 1028.89 1028.76 1028.36 1027.79 1027.29 1026.47 1025.74 1025.07 1023.95 1022.85 1021.91 1021.53 1021.08 1020.44 1019.76 1018.93 1017.23
1026.62 1027.32 1028.11 1028.76 1029.33 1030.10 1030.57 1031.06 1031.39 1031.63 1031.91 1032.06 1031.91 1031.95 1031.91 1031.78 1031.79 1031.41 1031.15 1030.81 1030.35 1030.08 1029.83 1029.41 1028.97 1028.70 1028.53 1027.99 1027.51 1026.94 1026.35 1025.88 1025.08 1024.32 1023.33 1022.68 1021.72 1021.42 1020.85 1020.16 1019.59 1018.83 1017.75
1026.14 1026.84 1027.46 1028.25 1028.90 1029.64 1030.27 1030.72 1031.03 1031.29 1031.62 1031.70 1031.80 1031.75 1031.63 1031.47 1031.52 1031.21 1030.77 1030.23 1029.89 1029.65 1029.48 1029.14 1028.64 1028.05 1027.69 1027.24 1026.42 1025.63 1025.07 1024.50 1023.87 1023.13 1022.36 1021.65 1021.17 1020.69 1020.30 1019.62 1018.91 1018.09 1017.31
1025.53 1026.08 1026.62 1027.57 1028.47 1029.31 1029.75 1030.19 1030.55 1030.93 1031.39 1031.58 1031.51 1031.60 1031.42 1031.33 1031.16 1030.68 1030.34 1029.80 1029.39 1029.15 1028.92 1028.43 1028.05 1027.51 1026.99 1026.02 1025.01 1024.26 1023.52 1022.72 1022.06 1021.49 1020.95 1020.30 1019.63 1019.08 1018.75 1018.37 1017.74 1017.21 1016.19
1024.57 1024.99 1025.85 1026.93 1027.73 1028.58 1029.28 1029.80 1030.25 1030.71 1031.06 1031.23 1031.14 1031.18 1031.16 1030.95 1030.73 1030.38 1029.90 1029.29 1028.78 1028.40 1028.03 1027.42 1026.97 1026.36 1025.69 1024.82 1024.10 1023.24 1022.09 1021.41 1021.03 1020.35 1019.66 1018.97 1018.49 1018.13 1017.95 1017.67 1017.20 1016.48 1015.77
1024.18 1025.03 1025.94 1026.56 1027.28 1028.13 1028.96 1029.61 1030.21 1030.59 1030.80 1030.92 1030.74 1030.61 1030.62 1030.47 1030.19 1029.79 1029.28 1028.67 1028.16 1027.59 1027.08 1026.54 1026.11 1025.62 1024.70 1023.96 1023.48 1022.96 1022.19 1021.30 1020.71 1019.94 1019.10 1018.37 1017.74 1017.26 1016.89 1016.59 1016.40 1016.02 1015.24
1024.19 1024.82 1025.66 1026.35 1027.07 1027.98 1028.76 1029.46 1029.98 1030.25 1030.37 1030.27 1030.20 1029.91 1029.63 1029.59 1029.44 1028.97 1028.55 1028.01 1027.49 1027.03 1026.50 1025.94 1025.49 1024.97 1024.71 1023.99 1023.39 1022.90 1022.07 1021.29 1020.83 1020.00 1019.15 1018.25 1017.47 1016.79 1016.26 1015.75 1015.44 1015.07 1014.54
1024.11 1024.74 1025.66 1026.45 1027.06 1027.77 1028.49 1028.99 1029.31 1029.52 1029.44 1029.29 1029.23 1028.89 1028.64 1028.68 1028.51 1028.24 1027.87 1027.42 1026.91 1026.42 1025.85 1025.40 1025.49 1025.33 1024.82 1024.13 1023.56 1023.03 1022.25 1021.59 1020.94 1020.12 1019.27 1018.41 1017.68 1017.01 1016.34 1015.67 1015.09 1014.52 1013.81
1023.83 1024.69 1025.63 1026.36 1026.98 1027.67 1028.01 1028.25 1028.35 1028.28 1028.34 1028.42 1028.35 1028.14 1027.99 1027.88 1027.63 1027.38 1027.04 1026.64 1026.36 1025.56 1025.45 1025.94 1025.67 1025.41 1024.87 1024.29 1023.73 1023.06 1022.48 1021.88 1021.36 1020.47 1019.45 1018.64 1017.85 1017.06 1016.20 1015.53 1014.69 1013.99 1013.26
1023.84 1024.62 1025.35 1026.05 1026.73 1026.95 1027.27 1027.29 1027.40 1027.39 1027.49 1027.53 1027.45 1027.44 1027.37 1026.93 1026.61 1026.40 1025.89 1025.61 1025.32 1025.13 1025.35 1025.70 1025.64 1025.29 1024.72 1024.18 1023.74 1023.19 1022.54 1021.91 1021.18 1020.41 1019.63 1018.74 1017.73 1016.80 1015.81 1015.08 1014.38 1013.64 1012.67
1023.79 1024.43 1024.93 1025.43 1025.90 1026.20 1026.41 1026.57 1026.59 1026.43 1026.49 1026.31 1026.00 1025.85 1025.77 1025.83 1025.47 1025.39 1025.25 1024.95 1024.72 1025.07 1025.46 1025.86 1025.76 1025.42 1024.87 1024.32 1023.70 1022.93 1022.35 1021.70 1020.97 1020.33 1019.50 1018.55 1017.58 1016.63 1015.57 1014.65 1013.92 1012.98 1011.88
1023.30 1023.84 1024.42 1024.93 1025.32 1025.67 1025.97 1026.06 1025.90 1025.89 1026.11 1026.02 1025.64 1025.31 1024.88 1024.52 1024.61 1024.86 1024.61 1024.46 1025.10 1025.42 1025.87 1025.95 1025.84 1025.46 1024.88 1024.36 1023.71 1022.94 1022.02 1021.39 1020.87 1019.97 1019.16 1018.22 1017.32 1016.33 1015.40 1014.28 1013.29 1012.28 1010.89
1023.95 1024.31 1024.47 1024.78 1025.14 1025.49 1025.67 1025.77 1025.87 1025.93 1025.82 1025.61 1025.79 1025.66 1025.19 1024.91 1024.68 1024.28 1024.30 1024.33 1025.29 1025.72 1026.03 1025.95 1025.70 1025.33 1024.77 1024.24 1023.61 1022.84 1022.04 1021.24 1020.47 1019.72 1018.87 1017.94 1016.92 1015.93 1014.80 1013.77 1012.73 1011.72 1010.55
1024.53 1024.71 1025.08 1025.29 1025.49 1025.64 1025.73 1025.73 1025.75 1025.67 1025.54 1025.61 1025.80 1025.72 1025.69 1025.21 1024.80 1024.46 1024.38 1024.98 1025.41 1025.61 1025.74 1025.71 1025.42 1025.03 1024.56 1024.11 1023.47 1022.74 1022.05 1021.18 1020.39 1019.53 1018.45 1017.38 1016.28 1015.34 1014.23 1013.37 1012.30 1011.19 1010.13
1024.98 1025.24 1025.42 1025.41 1025.49 1025.65 1025.69 1025.70 1025.59 1025.37 1025.22 1025.19 1025.20 1025.15 1025.36 1025.58 1025.15 1024.77 1024.84 1025.07 1025.22 1025.31 1025.42 1025.31 1024.99 1024.71 1024.29 1023.86 1023.22 1022.50 1021.74 1020.89 1020.04 1019.11 1018.01 1016.97 1015.72 1014.87 1013.92 1012.92 1011.85 1010.63 1009.37
1025.15 1025.21 1025.40 1025.43 1025.41 1025.44 1025.42 1025.31 1025.27 1025.18 1024.97 1024.75 1024.57 1024.72 1024.70 1024.81 1024.37 1024.37 1024.44 1024.56 1024.71 1024.87 1024.92 1024.83 1024.56 1024.23 1023.83 1023.46 1022.92 1022.21 1021.41 1020.57 1019.75 1018.78 1017.70 1016.61 1015.37 1014.32 1013.48 1012.57 1011.46 1010.22 1008.96
1025.49 1025.39 1025.42 1025.47 1025.44 1025.41 1025.35 1025.20 1025.14 1024.98 1024.75 1024.50 1024.25 1024.12 1023.86 1023.58 1023.46 1023.84 1023.99 1024.14 1024.32 1024.52 1024.55 1024.47 1024.08 1023.60 1023.29 1023.02 1022.55 1021.86 1021.10 1020.29 1019.38 1018.42 1017.33 1016.35 1015.08 1014.07 1013.10 1012.10 1011.07 1009.95 1008.78
1025.66 1025.57 1025.46 1025.37 1025.34 1025.35 1025.33 1025.07 1024.82 1024.60 1024.40 1024.17 1023.99 1023.77 1023.63 1023.47 1023.38 1023.40 1023.50 1023.75 1023.95 1024.01 1023.96 1023.91 1023.54 1023.02 1022.68 1022.41 1021.95 1021.39 1020.79 1019.90 1019.10 1018.31 1017.27 1016.04 1014.79 1013.84 1012.91 1011.92 1011.00 1009.98 1008.92
1025.44 1025.35 1025.40 1025.30 1025.03 1024.85 1024.73 1024.57 1024.34 1024.17 1024.05 1023.75 1023.54 1023.33 1023.09 1023.00 1022.95 1022.93 1023.08 1023.27 1023.40 1023.29 1023.20 1023.07 1022.76 1022.35 1022.02 1021.78 1021.14 1020.53 1019.95 1019.26 1018.65 1017.82 1016.85 1015.52 1014.70 1013.82 1012.96 1012.02 1011.14 1010.24 1009.27
1025.17 1025.21 1025.24 1025.06 1024.71 1024.48 1024.26 1024.03 1023.84 1023.59 1023.36 1023.19 1022.96 1022.75 1022.57 1022.51 1022.50 1022.48 1022.53 1022.68 1022.74 1022.60 1022.30 1022.05 1021.72 1021.35 1021.14 1020.81 1020.32 1019.74 1019.05 1018.30 1017.93 1016.88 1015.78 1015.13 1014.48 1013.76 1012.92 1012.15 1011.35 1010.43 1009.62
1024.93 1024.91 1024.74 1024.67 1024.34 1023.99 1023.74 1023.47 1023.17 1022.91 1022.66 1022.41 1022.27 1022.14 1022.08 1022.04 1022.00 1021.97 1021.95 1022.00 1021.94 1021.75 1021.47 1021.12 1020.77 1020.56 1020.28 1019.82 1019.22 1018.68 1018.07 1017.28 1016.43 1015.35 1015.16 1014.61 1014.23 1013.63 1012.99 1012.24 1011.57 1010.88 1010.19
Wind_Speed
9 9 10 8 9 7 7 6 6 6 4 4 4 4 5 5 5 5 5 6 7 7 7 8 10 10 8 9 9 9 10 10 13 13 12 14 18 16 14 13 13 14 12
10 10 10 9 9 8 7 6 5 5 4 4 3 3 4 5 5 5 6 6 7 9 9 10 11 9 12 11 9 12 12 13 12 18 15 12 16 17 16 17 13 12 14
12 12 11 10 10 9 8 7 5 4 4 3 2 3 4 4 5 5 7 8 8 9 9 10 11 12 12 11 12 12 12 12 12 13 16 12 12 12 15 15 14 13 12
13 12 13 12 11 9 8 7 5 4 4 3 1 1 3 4 5 5 7 8 8 8 9 10 11 12 13 14 13 14 13 12 13 13 14 14 12 12 12 12 12 10 10
14 14 14 12 10 9 8 6 5 4 3 2 2 1 3 4 3 7 8 8 9 10 10 10 11 13 18 16 11 13 15 12 12 12 13 14 13 11 11 10 12 12 13
15 15 12 10 9 8 7 7 6 5 5 4 3 2 3 3 6 9 10 9 9 10 11 11 11 13 14 18 19 21 19 14 14 12 13 15 17 14 12 12 12 12 16
12 9 9 9 9 9 8 7 7 6 4 4 4 4 4 5 7 10 11 8 9 9 11 11 11 9 13 14 18 21 20 22 22 17 17 16 17 16 15 15 15 14 14
11 10 9 10 10 10 9 8 6 5 5 5 5 5 4 5 8 10 12 10 9 10 11 12 13 14 14 16 17 17 17 16 17 13 16 17 17 16 16 16 17 16 14
11 12 11 11 10 11 9 8 6 5 6 6 5 5 5 5 8 11 11 9 8 10 11 12 13 16 20 24 18 17 17 17 19 28 29 31 31 30 24 13 12 12 13
12 12 11 11 11 10 9 8 5 5 6 5 5 5 5 6 9 10 10 7 9 9 11 12 15 18 24 26 18 17 17 14 14 16 16 20 23 19 26 17 12 13 13
7 8 9 10 9 9 8 6 6 6 5 5 6 6 7 7 7 10 11 8 8 9 9 10 10 21 25 27 29 17 18 21 19 14 12 11 11 11 10 11 13 13 13
8 9 9 9 8 7 7 6 6 6 6 6 6 6 5 6 8 9 11 13 14 10 11 9 11 24 28 28 23 25 26 21 10 10 10 10 10 11 10 10 13 13 13
8 8 8 8 7 7 8 7 6 6 6 6 6 5 5 4 5 10 12 14 15 11 10 13 21 22 22 17 20 23 16 9 9 10 10 11 11 11 14 13 13 15 16
8 8 8 8 8 7 6 6 6 7 6 6 6 6 5 5 5 5 6 8 12 11 7 6 12 14 14 14 11 12 9 9 10 11 10 11 11 10 10 10 11 10 11
7 7 8 7 8 8 8 7 7 7 7 6 6 6 6 7 6 9 11 8 8 7 7 6 8 8 8 9 9 9 9 9 9 9 10 10 11 10 10 10 10 10 11
8 7 7 7 7 6 6 6 14 15 15 17 18 13 8 14 15 13 16 16 13 12 5 6 7 7 8 9 9 10 9 10 9 10 10 10 10 11 11 11 10 11 12
8 8 6 6 6 7 7 7 7 7 11 13 14 15 16 15 13 15 15 16 8 7 3 5 7 7 8 8 9 9 11 10 11 10 11 10 10 11 13 11 11 12 11
3 2 5 5 5 6 6 6 6 6 7 6 7 9 10 12 15 13 14 7 4 2 3 6 6 7 7 8 9 9 10 10 10 10 11 11 10 11 11 12 11 12 12
3 3 3 3 4 5 5 5 6 7 7 6 6 7 7 10 11 13 7 3 4 5 5 6 6 7 7 8 9 9 10 10 11 11 10 11 11 10 11 11 12 16 16
3 3 3 4 4 5 5 6 7 7 7 7 6 7 3 3 4 5 4 4 5 5 5 6 7 7 7 8 9 9 9 10 10 9 10 11 11 10 11 12 12 12 12
2 3 3 4 5 6 6 7 7 7 7 7 7 7 11 7 7 6 5 5 5 5 5 6 7 7 7 8 8 9 9 10 9 10 10 10 11 11 10 11 11 12 12
2 3 3 4 5 6 6 6 7 8 8 8 8 7 13 7 6 6 6 5 5 5 5 6 7 7 7 8 8 9 9 10 10 9 10 11 11 10 10 11 11 10 11
2 3 3 4 4 5 6 6 7 8 8 8 7 7 6 6 6 6 6 5 5 6 6 6 7 7 7 8 8 8 9 9 9 10 11 11 10 10 10 10 10 10 10
2 3 4 5 5 5 6 7 7 8 8 8 7 7 7 6 6 7 6 6 6 6 6 7 7 9 8 8 8 8 8 9 8 10 15 11 9 10 9 9 9 11 9
2 3 4 5 5 6 6 6 7 7 7 7 7 7 7 6 7 7 6 6 6 6 8 7 7 9 11 11 12 14 14 16 13 15 10 8 9 10 8 7 9 9 10
4 5 5 5 6 5 6 7 7 7 7 7 7 7 7 7 7 7 6 6 6 6 8 7 8 12 13 12 13 14 14 16 15 14 5 5 6 7 7 7 10 7 9
Wind_Direction
156 145 146 145 141 143 145 143 139 135 126 95 61 43 25 9 360 345 351 344 339 330 326 323 317 318 309 306 303 297 290 288 284 289 291 295 295 295 295 292 293 292 289
168 166 166 157 163 164 158 149 150 141 122 89 63 34 10 358 345 342 337 334 332 331 331 324 318 320 311 307 300 296 291 290 288 289 289 291 288 296 296 294 288 282 285
178 179 176 178 180 175 168 162 152 146 126 103 64 18 353 336 330 332 334 328 327 323 320 315 314 314 308 309 305 301 301 298 293 287 290 291 290 291 291 289 288 286 282
187 188 190 190 190 181 170 162 162 160 146 147 134 325 320 323 315 327 318 317 314 312 312 312 311 309 308 311 304 300 297 297 297 291 288 293 291 293 285 287 285 286 298
191 196 201 194 186 177 164 165 161 173 175 178 193 250 301 303 316 320 319 318 315 313 312 309 306 311 303 297 297 301 301 299 297 294 290 292 293 296 303 309 301 304 296
197 204 201 188 176 175 170 177 180 187 196 195 201 240 279 281 306 311 318 312 306 305 308 308 305 304 301 305 298 297 295 294 291 295 293 285 291 297 297 290 288 290 292
194 195 182 176 182 186 181 186 197 201 202 220 218 232 257 281 291 306 306 296 299 302 302 305 307 304 302 300 300 298 293 286 283 286 289 289 291 294 297 295 288 282 282
197 194 183 184 191 186 188 199 199 202 221 225 230 232 255 275 291 300 302 297 297 297 298 298 299 302 303 302 294 285 281 280 276 272 268 272 275 276 273 275 277 276 275
201 200 191 189 187 189 196 197 199 209 224 231 222 237 253 277 291 301 305 300 292 294 294 295 298 299 295 294 295 294 286 276 271 272 272 274 275 276 278 281 277 281 281
204 204 189 183 185 186 191 189 193 212 230 234 240 253 260 271 285 291 296 289 295 300 299 294 288 296 303 303 299 292 290 305 307 289 276 273 274 271 275 276 281 277 280
185 169 175 182 177 179 175 183 193 212 231 236 252 255 257 255 267 283 288 289 291 298 300 304 303 305 308 315 313 307 302 308 309 303 297 294 287 275 265 259 257 263 271
168 174 177 167 168 168 172 182 202 214 228 239 250 261 246 254 258 277 287 287 295 301 296 298 306 320 321 315 316 310 310 318 312 303 302 297 295 292 290 286 279 274 268
164 171 164 162 170 168 181 196 209 214 234 242 245 257 258 252 266 280 288 289 295 296 293 309 327 319 322 320 320 320 329 320 314 309 306 301 302 306 302 293 286 281 277
173 171 166 175 181 184 197 207 216 221 228 235 242 252 260 263 269 268 283 286 275 291 319 321 318 324 320 317 317 328 327 322 317 304 302 306 304 302 297 296 292 289 281
176 175 181 190 194 196 213 215 222 231 231 236 234 235 250 266 268 272 285 296 295 316 345 329 324 320 321 321 320 320 322 322 316 313 308 305 302 301 295 296 289 288 282
179 180 189 193 195 207 214 228 235 237 233 237 245 245 244 240 268 291 285 295 318 339 336 310 308 308 311 316 316 318 318 317 319 318 308 304 304 302 301 301 292 284 277
188 181 184 199 204 212 218 229 244 225 253 258 259 263 265 264 269 280 287 290 359 356 300 295 293 298 305 307 309 313 314 316 315 310 308 305 302 301 303 298 296 291 286
176 163 197 207 219 225 231 239 244 250 257 251 248 266 268 269 266 272 277 309 313 309 274 281 287 292 298 300 303 308 308 310 312 309 305 300 299 301 302 299 297 295 296
177 203 221 237 241 251 249 246 249 251 251 256 276 269 269 271 274 266 293 266 263 268 268 273 279 286 291 294 297 300 300 299 304 300 300 302 300 303 300 296 295 295 292
211 236 237 247 249 244 243 247 249 247 252 254 251 256 254 228 240 232 231 238 247 255 260 267 277 280 283 287 292 295 297 297 299 300 302 304 303 308 301 299 297 298 297
244 245 244 256 253 255 256 251 255 256 255 254 253 248 239 227 240 237 243 241 247 256 264 272 277 276 282 284 286 288 292 293 295 298 299 306 307 307 303 299 299 299 298
272 279 271 264 271 265 261 263 263 262 261 261 263 257 260 263 255 251 248 248 252 255 260 266 271 274 279 282 285 287 289 290 293 298 301 304 304 307 306 306 307 307 308
254 263 265 263 260 266 262 259 260 259 260 259 258 260 252 246 247 248 253 257 255 256 255 254 263 271 274 272 272 275 279 280 289 298 295 297 309 310 311 311 314 315 319
259 272 278 278 275 274 271 273 274 266 266 266 260 255 252 252 251 255 258 261 258 260 257 254 253 261 276 272 277 277 272 273 282 284 288 293 305 314 315 317 319 322 324
295 276 268 272 276 277 278 272 270 269 265 260 260 256 256 255 258 259 258 257 258 263 266 265 266 271 272 272 273 278 278 284 281 278 282 293 307 313 319 320 331 331 341
270 267 270 274 266 266 271 276 277 271 267 264 259 257 260 259 261 263 263 260 263 264 267 269 269 270 277 280 277 278 284 291 294 291 280 310 316 325 332 338 344 349 351